Cody, WY

9:26 PM MDT on October 23, 2017 (GMT -0600)
Yellowstone Regional

Weather History for KCOD - October, 2011

Change the Weather History Date:

Thursday, October 27, 2011

  Actual Average Record
Temperature  
Mean Temperature 42 °F -  
Max Temperature 48 °F 56 °F 75 °F (1983)
Min Temperature 37 °F 30 °F -4 °F (1919)
Degree Days  
Heating Degree Days 22    
Moisture  
Dew Point 12 °F    
Average Humidity 30    
Maximum Humidity 41    
Minimum Humidity 24    
Precipitation  
Precipitation 0.00 in - - ()
Sea Level Pressure  
Sea Level Pressure 30.05 in    
Wind  
Wind Speed 12 mph (West)    
Max Wind Speed 20 mph    
Max Gust Speed 34 mph    
Visibility 10 miles    
Events      
Averages and records for this station are not official NWS values.
T = Trace of Precipitation, MM = Missing Value Source: NWS Daily Summary

Daily Weather History Graph

Daily Weather History Graph

Search for Another Location

Airport or City:

Trip Planner

Search our weather history database for the weather conditions in past years. The results will help you decide how hot, cold, wet, or windy it might be!

Date:

Astronomy

Oct. 27, 2011 Rise Set
Actual Time 7:46 AM MDT 6:12 PM MDT
Civil Twilight 7:16 AM MDT 6:42 PM MDT
Nautical Twilight 6:42 AM MDT 7:16 PM MDT
Astronomical Twilight 6:08 AM MDT 7:50 PM MDT
Moon 8:58 AM MDT (10/27) 6:38 PM MDT (10/27)
Length of Visible Light 11h 25m
Length of Day
10h 26m
New Moon, 1% of the Moon is Illuminated
Oct 27
New Moon
Nov 2
First Quarter
Nov 10
Full
Nov 18
Last Quarter
Nov 24
New

Hourly Weather History & Observations

Time (MDT) Temp. Windchill Dew Point Humidity Pressure Visibility Wind Dir Wind Speed Gust Speed Precip Events Conditions
12:15 AM 39.2 °F 29.6 °F 8.6 °F 28% 30.04 in 10.0 mi SSW 19.6 mph 29.9 mph N/A   Clear
12:35 AM 39.2 °F 30.5 °F 6.8 °F 26% 30.04 in 10.0 mi SW 16.1 mph 27.6 mph N/A   Clear
12:55 AM 39.2 °F 30.8 °F 6.8 °F 26% 30.03 in 10.0 mi SW 15.0 mph 26.5 mph N/A   Clear
1:15 AM 39.2 °F 29.8 °F 6.8 °F 26% 30.03 in 10.0 mi SW 18.4 mph 27.6 mph N/A   Mostly Cloudy
1:35 AM 39.2 °F 30.5 °F 6.8 °F 26% 30.04 in 10.0 mi SW 16.1 mph 25.3 mph N/A   Overcast
2:15 AM 39.2 °F 35.0 °F 6.8 °F 26% 30.04 in 10.0 mi SW 5.8 mph 19.6 mph N/A   Overcast
2:35 AM 41.0 °F 34.3 °F 6.8 °F 24% 30.04 in 10.0 mi WSW 11.5 mph 19.6 mph N/A   Scattered Clouds
2:55 AM 41.0 °F 33.9 °F 6.8 °F 24% 30.03 in 10.0 mi SW 12.7 mph 20.7 mph N/A   Mostly Cloudy
3:35 AM 39.2 °F 30.5 °F 8.6 °F 28% 30.02 in 10.0 mi SW 16.1 mph 34.5 mph N/A   Partly Cloudy
3:55 AM 39.2 °F 31.6 °F 10.4 °F 31% 30.03 in 10.0 mi SW 12.7 mph 33.4 mph N/A   Partly Cloudy
4:35 AM 39.2 °F 30.5 °F 12.2 °F 33% 30.03 in 10.0 mi SW 16.1 mph 27.6 mph N/A   Mostly Cloudy
5:15 AM 39.2 °F 32.0 °F 10.4 °F 31% 30.03 in 10.0 mi WSW 11.5 mph 21.9 mph N/A   Clear
5:35 AM 39.2 °F 31.2 °F 10.4 °F 31% 30.03 in 10.0 mi SW 13.8 mph 25.3 mph N/A   Clear
5:55 AM 39.2 °F 30.8 °F 10.4 °F 31% 30.04 in 10.0 mi SW 15.0 mph 21.9 mph N/A   Clear
6:15 AM 39.2 °F 31.6 °F 10.4 °F 31% 30.03 in 10.0 mi SW 12.7 mph 25.3 mph N/A   Clear
6:55 AM 39.2 °F 29.6 °F 10.4 °F 31% 30.02 in 10.0 mi SW 19.6 mph 26.5 mph N/A   Clear
7:15 AM 39.2 °F 32.5 °F 10.4 °F 31% 30.03 in 10.0 mi WSW 10.4 mph 24.2 mph N/A   Clear
7:35 AM 39.2 °F 30.2 °F 10.4 °F 31% 30.02 in 10.0 mi WSW 17.3 mph 24.2 mph N/A   Clear
7:55 AM 39.2 °F 31.6 °F 10.4 °F 31% 30.04 in 10.0 mi WSW 12.7 mph 18.4 mph N/A   Clear
8:15 AM 39.2 °F 32.0 °F 10.4 °F 31% 30.05 in 10.0 mi SW 11.5 mph 17.3 mph N/A   Clear
8:36 AM 37.4 °F 30.8 °F 12.2 °F 36% 30.06 in 10.0 mi NNW 9.2 mph - N/A   Clear
8:55 AM 37.4 °F 34.9 °F 12.2 °F 36% 30.07 in 10.0 mi North 3.5 mph - N/A   Clear
9:15 AM 37.4 °F - 14.0 °F 38% 30.06 in 10.0 mi Calm Calm - N/A   Clear
9:35 AM 39.2 °F 35.9 °F 15.8 °F 39% 30.07 in 10.0 mi NE 4.6 mph - N/A   Clear
10:15 AM 42.8 °F 40.1 °F 15.8 °F 34% 30.08 in 10.0 mi SW 4.6 mph - N/A   Clear
10:35 AM 44.6 °F 41.4 °F 15.8 °F 31% 30.07 in 10.0 mi West 5.8 mph - N/A   Clear
10:55 AM 44.6 °F 39.7 °F 15.8 °F 31% 30.06 in 10.0 mi SW 9.2 mph - N/A   Clear
11:15 AM 44.6 °F 41.4 °F 15.8 °F 31% 30.05 in 10.0 mi WSW 5.8 mph - N/A   Clear
11:35 AM 46.4 °F 41.9 °F 15.8 °F 29% 30.05 in 10.0 mi SW 9.2 mph - N/A   Clear
11:55 AM 46.4 °F 40.4 °F 15.8 °F 29% 30.05 in 10.0 mi West 13.8 mph 24.2 mph N/A   Clear
12:15 PM 46.4 °F 45.2 °F 15.8 °F 29% 30.05 in 10.0 mi South 3.5 mph 20.7 mph N/A   Clear
12:35 PM 46.4 °F - 15.8 °F 29% 30.05 in 10.0 mi Calm Calm - N/A   Clear
12:55 PM 48.2 °F - 15.8 °F 27% 30.05 in 10.0 mi West 4.6 mph - N/A   Clear
1:15 PM - - - N/A% 30.03 in 10.0 mi NW 12.7 mph - N/A   Clear
1:35 PM - - - N/A% 30.03 in 10.0 mi NNW 6.9 mph - N/A   Clear
1:55 PM - - - N/A% 30.03 in 10.0 mi NNW 8.1 mph - N/A   Clear
2:15 PM - - - N/A% 30.02 in 10.0 mi NNW 8.1 mph - N/A   Clear
2:35 PM - - - N/A% 30.02 in 10.0 mi ENE 5.8 mph - N/A   Clear
2:55 PM - - - N/A% 30.02 in 10.0 mi North 10.4 mph - N/A   Clear
3:15 PM - - - N/A% 30.02 in 10.0 mi WNW 5.8 mph - N/A   Clear
3:35 PM - - - N/A% 30.02 in 10.0 mi North 11.5 mph - N/A   Clear
3:55 PM - - - N/A% 30.03 in 10.0 mi NW 8.1 mph - N/A   Clear
4:15 PM - - - N/A% 30.03 in 10.0 mi NW 11.5 mph - N/A   Clear
4:35 PM - - - N/A% 30.03 in 10.0 mi WNW 10.4 mph - N/A   Clear
4:55 PM - - - N/A% 30.03 in 10.0 mi WNW 12.7 mph 17.3 mph N/A   Clear
5:15 PM - - - N/A% 30.04 in 10.0 mi NW 9.2 mph - N/A   Clear
5:35 PM - - - N/A% 30.05 in 10.0 mi WNW 6.9 mph - N/A   Partly Cloudy
5:55 PM - - - N/A% 30.05 in 10.0 mi West 3.5 mph - N/A   Partly Cloudy
6:15 PM - - - N/A% 30.06 in 10.0 mi NE 3.5 mph - N/A   Clear
6:35 PM - - - N/A% 30.07 in 10.0 mi East 9.2 mph - N/A   Clear
6:55 PM - - - N/A% 30.08 in 10.0 mi East 5.8 mph - N/A   Partly Cloudy
7:15 PM - - - N/A% 30.09 in 10.0 mi SE 6.9 mph - N/A   Partly Cloudy
7:35 PM - - - N/A% 30.10 in 10.0 mi SSE 3.5 mph - N/A   Clear
7:55 PM - - - N/A% 30.10 in 10.0 mi ENE 3.5 mph - N/A   Clear
8:35 PM 37.4 °F - 15.8 °F 41% 30.11 in 10.0 mi Calm Calm - N/A   Partly Cloudy
8:55 PM 35.6 °F 30.7 °F 14.0 °F 41% 30.11 in 10.0 mi North 5.8 mph - N/A   Clear
9:15 PM 37.4 °F 32.8 °F 15.8 °F 41% 30.12 in 10.0 mi NNW 5.8 mph - N/A   Clear
9:35 PM 35.6 °F - 15.8 °F 44% 30.11 in 10.0 mi Calm Calm - N/A   Clear
9:55 PM 35.6 °F 32.8 °F 15.8 °F 44% 30.12 in 10.0 mi West 3.5 mph - N/A   Clear
10:15 PM 32.0 °F - 14.0 °F 48% 30.12 in 10.0 mi Calm Calm - N/A   Clear
10:35 PM 33.8 °F - 14.0 °F 44% 30.13 in 10.0 mi Calm Calm - N/A   Clear
10:55 PM 30.2 °F - 14.0 °F 51% 30.14 in 10.0 mi Calm Calm - N/A   Clear
11:35 PM 30.2 °F 26.7 °F 15.8 °F 55% 30.16 in 10.0 mi SSW 3.5 mph - N/A   Clear
11:55 PM 28.4 °F - 12.2 °F 51% 30.16 in 10.0 mi Calm Calm - N/A   Clear